Home   Weather   Drummondville   Past weeks

Flag for Canada Past Weather in Drummondville, Quebec, Canada — Yesterday and Last 2 Weeks

Now
26 °F

Chilly.


Feels Like: 13 °F
Forecast: 16 / 28 °F
Wind: 17 mph from West

Location: Nicolet

Current Time: Dec 9, 2016 at 4:56:32 am

Latest Report: Dec 9, 2016 at 4:00 am


Visibility: N/A

Pressure: 29.76 "Hg

Humidity: 67%

Dew Point: 17 °F

Location of DrummondvilleLocation

Past Weather in Drummondville — Graph

°F

Drummondville Temperature Yesterday

Maximum temperature yesterday: 35 °F (at 12:00 am)
Minimum temperature yesterday: 30 °F (at 11:00 pm)
Average temperature yesterday: 33 °F

High & Low Weather Summary for the Past Weeks

 TemperatureHumidityPressure
High42 °F (Dec 2, 10:00 am)100% (Nov 25, 11:00 am)30.35 "Hg (Nov 25, 11:00 am)
Low19 °F (Dec 5, 1:00 am)59% (Dec 4, 2:00 pm)29.38 "Hg (Dec 1, 1:00 pm)
Average32 °F86%29.96 "Hg
* Reported Nov 24 3:00 am — Dec 9 3:00 am, Drummondville, Weather by CustomWeather, © 2016

Note: Actual official high and low records may vary slightly from our data, if they occured in-between our weather recording intervals... More about our weather records

Advertising

Drummondville Weather History for the Previous 24 Hours

Scroll right to see more
 ConditionsComfort  
Time TempWeatherWind HumidityBarometerVisibility
3:00 am
Fri, Dec 9
28 °FChilly.16 mph67%29.74 "HgN/A
2:00 am28 °FChilly.16 mph70%29.72 "HgN/A
1:00 am28 °FChilly.13 mph70%29.70 "HgN/A
12:00 am29 °FChilly.13 mph68%29.68 "HgN/A
11:00 pm
Thu, Dec 8
30 °FChilly.13 mph69%29.68 "HgN/A
10:00 pm31 °FChilly.15 mph70%29.67 "HgN/A
9:00 pm33 °FChilly.15 mph64%29.67 "HgN/A
8:00 pm32 °FChilly.14 mph66%29.67 "HgN/A
7:00 pm32 °FChilly.14 mph63%29.68 "HgN/A
6:00 pm32 °FChilly.14 mph67%29.68 "HgN/A
5:00 pm31 °FChilly.12 mph76%29.66 "HgN/A
4:00 pm31 °FChilly.14 mph76%29.65 "HgN/A
3:00 pm33 °FChilly.16 mph87%29.66 "HgN/A
2:00 pm34 °FChilly.13 mph76%29.66 "HgN/A
1:00 pm34 °FChilly.14 mph78%29.67 "HgN/A
12:00 pm34 °FChilly.10 mph76%29.68 "HgN/A
11:00 am34 °FChilly.9 mph78%29.71 "HgN/A
10:00 am34 °FChilly.12 mph76%29.73 "HgN/A
9:00 am33 °FChilly.12 mph78%29.74 "HgN/A
8:00 am33 °FChilly.8 mph77%29.74 "HgN/A
7:00 am33 °FChilly.10 mph75%29.75 "HgN/A
6:00 am32 °FChilly.7 mph76%29.77 "HgN/A
5:00 am32 °FChilly.8 mph77%29.79 "HgN/A
4:00 am33 °FChilly.8 mph75%29.81 "HgN/A
Weather by CustomWeather, © 2016

See weather overviewHow to use our weather pages